Lapse_Rate
0.7 0.7 0.5 0.2 -0.1 -0.1 0.3 0.5 0.4 0.1 -0.0 -0.3 -0.5 -0.9 -1.5 -1.9 -2.0 -2.1 -0.5 2.6 1.5 3.0 4.1 3.8 4.3 5.9 7.6 6.8 7.6 6.8 6.5 6.5 6.5 6.5 6.5 6.6 6.5 6.7 7.1 7.1 7.1 7.3 6.9 6.8 6.2
0.9 0.8 0.6 0.3 0.1 -0.2 -0.2 0.0 0.3 0.2 -0.2 -0.6 -0.8 -0.8 -1.4 -2.0 -2.6 -2.2 0.2 1.9 2.5 3.7 4.1 3.9 4.3 6.3 6.0 6.4 7.3 6.3 6.5 6.5 6.5 6.6 6.5 6.5 6.3 6.2 6.5 6.6 6.8 6.4 7.4 6.8 5.7
0.6 0.6 0.4 0.1 -0.1 -0.1 -0.2 -0.1 -0.4 -0.4 -0.4 -0.8 -0.8 -0.8 -1.2 -2.0 -0.2 2.4 2.7 2.0 2.6 3.4 4.8 5.6 6.0 7.0 6.5 6.7 6.4 6.6 6.5 6.5 6.7 7.0 7.0 6.4 6.2 7.0 6.5 6.5 6.7 6.7 7.4 6.2 5.9
0.9 0.7 0.5 -0.1 -0.3 -0.3 -0.2 -0.4 -0.5 -0.8 -1.0 -0.7 -0.7 -0.9 -0.9 -2.0 6.5 6.1 2.9 2.0 2.9 3.2 5.7 6.0 6.3 6.1 6.1 6.5 6.1 6.5 6.8 6.7 6.8 6.4 6.5 6.5 6.3 6.5 6.3 6.6 6.5 6.2 6.3 6.0 6.0
0.6 0.5 0.3 -0.1 -0.4 -0.5 -0.4 -0.3 -0.5 -1.0 -1.2 -0.9 -0.7 -0.5 -0.7 2.7 1.2 4.0 2.4 2.6 3.0 2.9 4.3 5.6 5.9 5.4 6.5 6.2 6.2 6.5 6.4 6.7 6.4 6.4 6.3 6.7 6.4 6.4 5.9 6.4 6.5 6.6 6.7 6.1 6.1
0.1 0.0 0.0 -0.2 -0.5 -0.7 -0.5 -0.3 -0.8 -1.2 -1.0 -0.7 -0.6 -0.1 0.4 6.0 4.4 3.4 2.2 1.7 2.4 3.3 3.9 5.0 5.7 5.8 6.1 6.3 6.4 6.4 6.5 6.8 7.1 6.2 6.6 6.6 6.6 6.3 6.6 6.1 6.9 7.1 7.0 6.8 6.3
-0.0 -0.1 -0.2 -0.2 -0.5 -0.7 -0.7 -1.0 -1.4 -1.5 -1.4 -0.8 0.1 0.7 1.2 2.2 3.9 3.4 2.8 2.7 2.7 3.2 3.3 5.2 6.8 5.8 6.2 6.5 6.5 6.9 6.5 6.5 6.7 6.4 6.5 6.8 6.5 6.5 7.0 6.6 7.3 7.3 7.3 7.2 7.0
-0.2 -0.0 -0.4 -0.9 -1.0 -1.2 -1.6 -2.1 -2.0 -1.4 -0.9 -0.3 0.8 1.2 1.7 3.6 3.9 4.4 4.0 5.0 5.0 4.5 5.4 5.3 6.7 6.3 6.6 5.7 6.3 6.5 6.5 6.5 6.5 6.6 6.5 6.0 6.5 6.5 5.9 7.1 7.0 7.3 7.5 7.3 6.7
-0.6 -0.8 -0.8 -1.1 -1.6 -2.0 -2.6 -2.7 -1.9 -1.0 -0.4 1.0 -0.3 1.7 2.8 4.6 3.9 3.5 3.9 5.2 3.5 5.1 5.2 7.8 7.2 5.6 6.2 6.5 6.5 6.5 6.5 6.5 6.5 6.5 6.5 6.5 6.5 6.3 6.2 6.2 6.9 7.1 7.4 7.1 6.9
-0.9 -1.1 -1.0 -1.2 -1.6 -2.2 -3.2 -2.8 -1.3 -0.2 0.4 1.9 3.6 4.3 3.2 6.6 6.1 3.9 3.1 5.6 5.9 5.6 6.5 6.5 4.9 6.5 6.5 6.5 6.5 6.5 6.5 6.5 6.5 6.5 6.5 6.5 6.5 6.5 6.8 6.6 6.6 6.8 7.1 7.0 7.1
-1.3 -1.4 -1.7 -1.6 -2.1 -3.1 -4.2 -1.3 2.3 3.3 2.5 4.2 4.2 4.4 5.1 6.4 6.3 5.5 4.5 6.1 6.6 5.4 6.5 5.7 6.5 6.5 6.5 6.5 6.5 6.5 6.5 6.5 6.5 6.5 6.5 6.5 6.5 6.5 6.6 6.7 6.2 6.4 6.2 6.6 6.5
-1.6 -1.5 -1.7 -2.3 -2.9 -3.8 -5.2 1.3 4.8 5.2 5.1 3.0 3.5 4.4 4.9 5.9 6.0 6.5 5.5 6.2 6.1 6.5 6.4 6.5 6.5 6.5 6.6 6.5 6.5 6.5 6.5 6.5 6.5 6.5 6.5 6.5 6.5 6.5 6.6 6.5 6.1 6.5 6.4 6.5 6.4
-1.8 -1.9 -1.9 -2.6 -3.5 -4.8 -2.4 2.0 2.5 3.6 5.0 4.7 3.4 4.0 4.4 4.0 5.2 4.8 5.6 5.7 6.3 6.5 6.5 6.5 6.5 6.5 6.5 6.5 6.5 6.5 6.5 6.5 6.5 6.5 6.5 6.5 6.5 6.5 6.5 6.5 5.9 6.5 5.7 7.1 6.1
-1.8 -2.2 -2.4 -3.4 -1.8 -2.4 0.9 3.0 2.0 2.1 6.5 6.5 6.1 5.3 5.3 5.2 6.1 5.6 5.4 5.8 6.4 6.5 6.5 6.5 6.3 6.5 6.4 6.5 6.5 6.5 6.5 6.5 6.5 6.5 6.5 6.5 6.5 6.5 6.5 6.5 6.4 6.6 5.7 6.7 6.5
-1.8 -2.3 -3.0 -3.3 -3.5 1.5 4.5 0.0 1.4 2.7 6.5 6.5 6.2 6.5 5.3 4.9 6.3 6.6 5.4 5.7 6.5 6.5 6.5 6.4 6.5 6.5 6.5 6.5 6.5 6.5 6.5 6.5 6.5 6.5 6.5 6.5 6.5 6.5 6.5 6.5 6.5 6.4 6.2 4.8 7.1
-1.7 -2.3 -3.0 -3.9 -4.2 -1.9 -0.5 -0.7 2.3 6.5 6.5 6.5 6.1 6.5 6.5 6.0 6.3 5.8 6.4 5.8 5.3 6.5 6.5 6.5 6.1 6.4 6.5 6.5 6.5 6.5 6.5 6.5 6.5 6.5 6.5 6.5 6.5 6.5 6.5 6.5 6.5 6.5 6.3 4.6 5.8
-2.4 -3.3 -3.6 -1.9 1.8 0.4 -0.0 1.9 6.5 6.5 6.5 6.5 6.5 6.5 6.5 6.5 6.5 6.5 6.5 6.5 6.5 6.5 6.5 6.5 6.5 6.5 6.1 6.5 6.5 6.5 6.5 6.5 6.5 6.5 6.5 6.5 6.5 6.5 6.5 6.5 6.4 6.4 6.5 4.6 4.0
-3.4 -4.7 -5.3 -3.3 -2.0 0.8 1.3 6.0 6.5 6.5 6.6 6.5 6.5 6.5 6.5 6.5 6.5 6.5 6.5 6.5 6.5 6.5 6.6 6.5 6.5 6.5 6.5 6.5 6.5 6.5 6.5 6.5 6.5 6.5 6.6 6.5 6.6 6.5 6.5 6.2 6.3 5.8 6.1 5.4 3.5
-4.5 -5.6 -4.9 -3.4 -3.9 -1.3 2.6 6.5 6.5 6.5 6.5 6.5 6.5 6.5 6.5 6.5 6.4 6.5 6.5 6.5 6.5 6.5 6.5 6.5 6.5 6.5 6.5 6.5 6.5 6.5 6.5 6.5 6.5 6.5 6.5 6.5 6.5 6.5 6.6 6.5 6.1 5.5 5.9 5.5 5.3
-4.8 -2.5 -0.4 -0.3 -0.0 1.0 5.4 6.5 6.5 6.4 6.5 6.5 6.5 6.5 6.5 6.5 6.5 6.5 6.5 6.5 6.5 6.5 6.2 6.5 6.5 6.5 6.5 6.3 6.4 6.5 6.5 6.5 6.5 6.5 6.5 6.5 6.5 6.5 6.5 6.5 6.5 6.5 6.0 4.7 4.9
-2.4 2.5 2.9 0.6 1.2 1.2 6.5 6.5 6.5 5.8 6.1 6.5 6.5 6.5 6.5 6.5 6.5 6.5 6.5 6.5 6.5 6.5 6.0 6.5 6.5 6.5 6.5 6.6 6.6 6.5 6.5 6.5 6.5 6.5 6.5 6.5 6.5 6.5 6.5 6.5 6.5 6.6 6.5 5.4 4.8
-1.0 6.4 1.8 1.2 4.1 4.8 6.5 6.5 5.7 6.4 6.0 6.5 6.4 6.5 6.5 6.5 6.5 6.5 6.5 6.5 6.1 6.2 6.5 6.5 6.5 6.5 6.5 6.5 6.5 6.5 6.5 6.5 6.5 6.5 6.5 6.5 6.5 6.5 6.5 6.4 6.4 6.8 6.7 6.0 5.8
0.8 1.0 3.3 3.5 6.5 6.5 6.2 6.5 6.3 6.5 6.5 6.5 6.5 6.5 6.5 6.5 6.5 6.5 6.5 6.1 6.0 6.5 6.5 6.5 6.5 6.5 6.5 6.5 6.5 6.5 6.5 6.5 6.5 6.5 6.5 6.5 6.5 6.5 6.6 6.3 6.6 6.4 5.6 5.8 5.5
0.7 6.5 2.2 1.1 1.3 6.3 6.5 6.5 6.5 6.2 6.4 6.2 6.5 6.2 6.5 6.5 6.5 6.5 6.5 6.5 6.4 6.3 5.2 5.1 6.5 6.5 6.5 6.5 6.5 6.5 6.5 6.5 6.5 6.5 6.5 6.5 6.5 6.5 6.5 6.5 6.7 6.8 6.6 5.8 5.4
0.4 5.5 4.2 6.5 5.9 6.4 6.5 6.5 6.5 6.5 6.0 4.9 6.5 6.5 6.5 6.5 6.5 6.5 6.5 6.5 6.3 6.3 6.0 6.5 6.5 6.5 6.5 6.5 6.5 6.5 6.5 6.5 6.5 6.5 6.5 6.5 6.5 6.5 6.5 6.5 6.8 6.8 6.7 6.2 5.8
2.9 3.7 1.8 3.7 4.1 6.3 6.5 6.5 6.5 6.5 6.5 6.5 6.5 6.5 6.5 6.5 6.5 6.5 6.5 6.5 6.5 6.5 6.5 6.5 6.5 6.5 6.5 6.5 6.5 6.5 6.5 6.5 6.5 6.5 6.5 6.5 6.5 6.5 6.1 7.0 7.0 6.7 7.0 6.8 6.0
0.6 1.6 2.8 4.2 5.8 6.5 6.5 6.5 6.5 6.4 6.3 6.3 6.5 6.5 6.5 6.5 5.8 4.5 4.1 4.4 5.6 6.5 6.5 6.5 6.5 6.5 6.5 6.5 6.5 6.5 6.5 6.6 6.5 6.5 6.5 6.5 6.5 6.4 6.5 6.7 6.9 7.1 6.8 7.3 6.8
Wind_Speed
13 12 13 12 13 13 13 13 13 13 13 15 15 15 14 14 14 2 6 9 8 7 14 9 3 2 2 3 5 3 2 0 4 5 6 2 11 4 5 14 6 1 9 15 17
14 13 13 13 13 13 12 13 13 13 12 14 15 15 14 15 3 8 11 12 10 17 7 9 6 6 2 4 3 3 1 1 5 9 5 5 11 10 8 10 14 17 17 19 17
13 14 14 14 13 13 14 14 14 13 12 12 14 15 14 13 4 7 8 18 18 15 4 5 6 6 3 4 4 4 2 2 3 14 11 8 5 10 18 10 20 25 21 19 17
15 14 15 14 13 14 14 13 13 14 13 11 13 13 14 2 2 1 5 22 18 14 4 6 5 5 3 3 3 2 6 5 4 7 12 12 6 12 7 8 20 23 21 19 18
15 15 15 16 15 13 13 13 13 13 13 12 10 10 4 1 8 5 11 20 12 9 8 7 6 5 3 2 4 4 4 7 8 8 11 10 8 10 4 18 18 20 20 20 16
15 16 16 16 16 15 15 14 13 12 12 10 7 5 1 2 3 4 11 9 7 7 7 6 7 6 3 5 6 6 3 10 7 7 7 13 7 5 10 20 19 22 20 17 17
15 15 15 16 16 16 15 15 14 12 10 7 5 2 1 11 5 6 7 4 5 6 6 4 1 4 3 6 3 7 7 6 8 4 6 18 7 11 6 21 21 21 19 16 14
15 16 16 16 16 16 16 16 15 12 8 5 4 2 6 5 6 2 4 3 3 1 1 3 3 2 3 5 4 8 4 7 9 8 7 3 3 9 6 18 20 20 16 14 13
14 13 13 15 14 15 17 18 17 10 3 2 4 2 8 5 3 6 6 4 6 4 3 3 4 5 1 1 4 1 3 4 7 5 7 3 4 8 5 10 18 17 17 13 13
15 12 13 12 13 16 19 13 1 2 3 5 5 2 5 1 3 6 6 6 4 6 4 4 2 2 3 4 4 3 4 2 4 10 6 2 2 13 11 10 11 13 14 14 15
14 12 11 13 13 10 8 2 3 1 2 7 6 5 5 5 2 4 6 5 2 5 5 4 4 5 7 6 4 3 2 4 6 7 7 5 6 15 12 6 10 12 9 14 16
17 15 13 13 12 9 0 2 3 4 7 12 12 6 6 3 3 2 7 5 4 4 4 5 4 7 3 6 4 3 1 5 11 8 9 10 7 4 7 13 11 19 8 16 14
20 18 16 14 13 2 3 5 3 4 1 7 5 4 5 8 5 5 10 5 4 4 4 5 4 5 5 2 4 1 3 7 5 8 8 9 6 11 4 12 13 17 7 15 17
20 19 17 24 0 2 5 3 5 4 4 5 3 6 4 5 3 6 8 6 1 8 6 4 5 4 2 3 5 2 5 5 16 8 4 2 3 10 10 13 15 19 8 14 17
17 17 13 9 5 2 5 8 3 3 3 12 3 1 1 7 1 2 5 4 8 5 7 7 3 4 6 5 6 7 3 5 9 4 6 4 1 5 6 12 14 19 12 8 17
16 15 11 1 1 7 13 7 3 5 3 7 5 5 2 4 3 2 3 4 3 4 2 6 2 5 7 6 9 3 1 6 6 4 1 8 6 4 7 14 17 22 15 11 14
18 14 6 1 3 2 4 4 5 3 5 7 4 6 5 6 2 2 3 2 5 3 3 4 5 3 5 3 2 4 5 1 2 1 5 9 7 6 5 11 18 26 18 15 13
24 14 7 5 4 4 3 5 4 1 2 3 5 5 5 7 5 7 4 2 2 5 3 3 4 7 3 8 6 6 10 5 6 5 3 5 5 4 5 9 7 7 9 6 7
22 1 2 4 16 0 5 4 6 3 3 6 3 6 6 5 3 3 5 1 5 1 8 5 5 2 2 5 9 4 4 9 5 2 4 2 4 2 5 8 10 11 13 10 8
3 3 3 7 14 4 5 3 3 3 2 3 3 3 3 6 5 5 3 3 2 2 3 1 2 2 5 2 3 8 6 4 3 5 4 1 2 3 2 4 8 10 10 7 8
3 3 2 7 3 5 3 4 4 5 3 3 0 3 2 2 2 1 2 2 1 3 6 2 3 6 2 1 4 1 2 5 5 5 5 3 5 1 6 7 9 10 8 7 7
2 2 3 2 4 2 1 3 4 2 3 1 3 2 4 3 2 1 3 4 4 3 3 3 4 2 7 7 2 5 9 7 5 3 1 3 5 2 8 6 9 10 8 7 7
1 2 3 4 2 2 3 3 3 2 4 3 0 1 2 4 1 3 3 5 5 2 4 2 2 3 8 6 7 6 5 3 4 4 6 6 4 4 5 5 4 9 8 7 6
3 2 4 4 2 5 1 3 3 2 3 3 3 3 1 2 2 3 2 3 2 4 12 7 3 4 5 4 3 6 7 7 3 4 6 4 7 9 10 9 8 9 7 7 7
3 1 4 1 1 2 2 2 3 2 5 8 5 4 1 3 5 3 3 4 5 2 5 5 3 2 4 5 2 6 8 7 6 5 6 10 13 17 12 13 10 10 9 8 8
2 3 4 1 2 5 4 5 4 2 4 4 3 4 5 4 1 4 4 5 2 1 2 3 4 3 3 7 7 3 7 10 4 8 8 12 5 6 8 11 11 9 9 10 8
2 2 3 5 3 3 2 2 2 2 2 1 2 1 2 2 4 8 8 4 6 2 3 3 4 2 3 7 6 4 9 6 4 1 16 9 7 11 13 13 12 11 9 12 11
Wind_Direction
334 333 332 332 330 329 330 330 331 333 331 328 328 328 328 329 318 166 237 219 180 192 135 130 173 225 161 237 223 71 312 116 123 149 162 221 130 155 74 130 123 125 124 133 127
332 331 329 328 327 326 325 325 326 329 330 328 326 325 326 329 286 243 241 196 200 163 134 150 173 160 171 220 205 184 256 278 95 156 197 146 134 126 120 139 106 102 115 129 132
330 326 327 325 323 322 323 323 324 323 326 327 324 322 322 322 301 247 191 194 183 180 144 153 136 156 225 208 204 145 236 107 230 175 194 150 116 144 146 140 144 142 145 144 149
327 324 323 320 319 318 317 318 318 319 321 323 325 325 319 283 211 196 197 179 173 166 132 152 145 143 211 208 195 151 212 226 223 217 172 167 149 149 163 157 147 148 152 149 160
323 323 320 317 314 311 309 310 311 312 312 315 320 331 346 311 252 311 117 153 150 147 180 176 150 131 205 231 142 235 201 193 175 197 142 141 147 147 158 138 145 147 157 162 168
323 321 317 315 312 309 306 304 302 302 304 307 306 331 296 259 269 143 128 138 152 141 172 181 180 192 261 240 194 174 120 115 116 167 139 128 120 119 159 144 150 158 167 170 173
327 324 321 317 314 309 306 305 300 298 294 293 279 227 17 241 18 126 117 151 168 159 151 205 213 80 346 316 208 154 125 70 130 136 135 125 132 142 147 148 160 171 173 176 178
333 329 323 321 318 314 311 302 293 293 289 254 225 225 240 249 303 236 165 145 153 122 27 165 244 314 212 277 299 160 140 149 187 147 147 114 143 122 134 160 170 175 170 173 170
335 330 325 323 319 314 308 302 293 276 228 179 117 215 267 306 197 196 174 170 146 140 185 255 158 210 272 138 11 306 192 188 176 201 153 65 166 168 207 155 187 187 174 175 167
336 333 325 320 317 316 312 305 162 173 174 173 268 342 271 144 219 180 185 144 148 132 152 172 120 134 46 82 193 76 92 235 162 186 165 41 219 174 183 202 197 190 185 176 173
331 331 327 318 317 323 343 47 28 38 247 207 203 243 283 291 243 196 149 127 118 101 144 179 125 194 206 179 144 98 20 356 58 59 79 43 4 176 192 208 227 212 170 180 176
327 331 326 321 316 314 277 133 214 174 298 236 245 261 286 68 333 191 112 143 137 156 122 42 213 209 190 173 143 121 13 86 93 103 92 28 354 345 221 207 211 210 194 166 165
325 325 330 320 314 279 194 222 231 288 126 295 194 208 208 141 204 236 143 155 137 154 134 148 225 153 169 169 111 152 178 175 137 101 90 124 332 285 201 224 185 230 247 174 161
321 323 330 325 133 296 270 197 261 194 56 284 292 274 151 152 265 191 169 144 143 185 151 221 236 192 225 177 121 207 225 191 142 154 159 216 246 230 198 202 198 217 200 177 172
316 317 331 360 306 274 278 311 315 62 61 336 330 353 40 143 235 212 160 81 193 160 110 233 192 170 210 196 146 231 216 251 156 112 106 218 112 282 142 192 189 204 224 175 184
310 302 312 120 229 247 301 316 50 39 26 336 343 350 77 11 324 65 134 76 144 141 34 227 213 155 214 218 184 184 244 53 52 112 147 185 175 241 193 193 173 190 203 153 161
309 298 272 233 229 348 295 33 48 96 340 342 325 349 350 356 288 131 126 144 151 118 341 331 272 228 174 224 87 127 85 97 358 335 220 170 170 260 238 184 187 193 175 161 145
317 302 237 231 255 25 53 54 80 290 318 301 318 350 62 9 9 358 104 193 44 89 121 139 312 175 175 179 178 179 156 164 193 182 208 110 222 242 309 238 196 147 157 133 145
323 82 237 254 209 141 74 59 195 199 298 336 14 46 350 353 67 53 7 10 33 99 170 157 265 303 174 210 147 192 144 200 132 28 97 205 297 299 41 57 98 123 143 160 138
349 330 268 138 153 75 72 225 222 240 358 18 85 61 8 329 28 36 28 298 111 105 180 309 286 265 286 169 222 163 172 87 5 136 175 280 304 253 83 113 102 93 101 96 101
30 31 258 165 77 50 116 239 256 259 210 153 9 115 172 267 104 63 303 266 194 13 95 52 126 279 332 160 193 39 174 47 118 127 150 160 250 164 179 155 120 118 114 118 112
13 39 347 14 52 15 138 215 265 269 235 206 93 132 143 186 307 244 232 242 212 155 69 357 130 251 223 259 298 213 201 158 130 206 46 117 259 98 126 131 126 127 132 109 100
62 274 357 80 130 299 288 279 255 292 9 347 113 131 120 178 191 238 260 267 267 71 114 7 7 19 342 356 9 30 347 30 108 98 178 143 239 135 117 108 107 136 131 122 117
105 64 334 50 64 135 181 306 29 11 31 296 50 59 118 336 121 287 274 301 160 188 119 90 75 146 169 221 226 303 315 313 147 130 156 192 153 188 170 159 139 120 117 122 105
40 265 192 356 313 109 110 350 53 30 359 17 21 20 195 28 340 344 307 313 22 111 75 116 140 220 228 237 281 267 280 299 233 167 160 185 175 194 168 153 137 126 124 115 102
84 60 4 57 301 91 351 359 43 31 38 340 56 353 107 117 189 315 351 355 244 333 92 50 187 169 354 335 352 277 346 346 137 98 63 134 133 135 129 123 134 132 124 112 105
324 356 103 311 31 62 274 180 21 109 314 342 296 133 51 76 224 232 207 214 251 179 127 135 120 65 246 332 337 2 344 303 266 125 139 166 187 143 143 156 139 129 123 121 110